Airfield :
LOGIN :

Register | Disclaimer

   EN    FR    IT 

 










Legend :    VFR   Marginal VFR   IFR   Intensive IFR   Very Intensive IFR
Visi :
Ceiling :
>= 8 km
>= 3000ft
5 to 8 km
1000 to 3000 ft
1500m to 5 km
500 to 1000 ft
800 to 1500m
200 to 500 ft
< 800m
< 200 ft
Symbols :   Thunderstorms  Fog  Heavy snow  Heavy precipitations  Wind > 20 kt
SIGMETs :     Misc.  Thunderstorms  Icing  Turbulence  Mountain Waves  Volcanic Ashes






- Airport Elevation : 19 ft
- IATA code : BEB


EGPL - Benbecula

CURRENT METAR :
  • 240420Z AUTO 10002KT 9999 NCD 03/03 Q0994

EXPIRED METARs :
  • 240350Z AUTO 12004KT 9999 NCD 04/03 Q0994
  • 240320Z AUTO 12004KT 9999 NCD 04/04 Q0994
  • 240250Z AUTO 11004KT 9999 NCD 04/03 Q0994
  • 240220Z AUTO 13004KT 9999 FEW032/// 04/03 Q0994
  • 240150Z AUTO 14003KT 9999 SCT031/// 06/04 Q0994

TAF TAF EGPL
Valid from the 24 at 03:00 until the 24 at 12:00 UTC


240155Z 2403/2412 06004KT 9999 FEW035
ATIS : +44 1870 604 818



MET'MAP, your aeronautical weather chart ! - Copyright ORBIFLY December 2007 - Disclaimer

ORBIFLY MET'MAP TEAM :

Programming & Development : Alexandra Zaïnal
Concept & original design : Baudouin d'Aumeries
Assistance for programming : Marc-Olivier Méhu
Technical & hardware support : Manuel Goepfert

Contact : metmap@orbifly.com




SOURCES & CREDITS :

   NOAA